Home > Weather > Vilnius > Past weeks

Flag for Lithuania Past Weather in Vilnius, Lithuania — Yesterday and Last 2 Weeks

Now
73 °F

Sunny.


Feels Like: 75 °F
Forecast: 62 / 74 °F
Wind: 7 mph from Southeast

Location: Vilnius Airport

Current Time: Jul 28, 2016 at 9:52:29 AM

Latest Report: Jul 28, 2016 at 9:20 AM


Visibility: 10 mi

Pressure: 29.95 "Hg

Humidity: 74%

Dew Point: 64 °F

Location of VilniusLocation

Past Weather in Vilnius — Graph

°F

Vilnius Temperature Yesterday

Maximum temperature yesterday: 82 °F (at 3:20 PM)
Minimum temperature yesterday: 59 °F (at 5:50 AM)
Average temperature yesterday: 73 °F

High & Low Weather Summary for the Past Weeks

 TemperatureHumidityPressure
High82 °F (Jul 27, 3:20 PM)100% (Jul 13, 11:50 PM)30.15 "Hg (Jul 13, 11:50 PM)
Low50 °F (Jul 14, 3:20 AM)42% (Jul 27, 4:20 PM)29.62 "Hg (Jul 15, 1:50 AM)
Average65 °F81%29.96 "Hg
* Reported Jul 13 8:20 AM — Jul 28 8:50 AM, Vilnius, Weather by CustomWeather, © 2016

Note: Actual official high and low records may vary slightly from our data, if they occured in-between our weather recording intervals... More about our weather records

Advertising

Vilnius Weather History for the Previous 24 Hours

Scroll right to see more
 ConditionsComfort  
Time TempWeatherWind HumidityBarometerVisibility
8:50 AM
Thu, Jul 28
73 °FSunny.7 mph74%29.95 "Hg10 mi
8:20 AM73 °FSunny.8 mph74%29.95 "Hg10 mi
7:50 AM72 °FSunny.6 mph78%29.95 "Hg10 mi
7:20 AM70 °FSunny.7 mph78%29.95 "Hg10 mi
6:50 AM70 °FSunny.6 mph78%29.98 "Hg10 mi
6:20 AM68 °FClear.6 mph83%29.98 "Hg10 mi
5:50 AM64 °FClear.5 mph88%29.98 "Hg10 mi
5:20 AM68 °FClear.1 mph73%29.98 "Hg10 mi
4:50 AM66 °FClear.1 mph83%29.98 "Hg6 mi
4:20 AM68 °FClear.1 mph78%29.98 "Hg10 mi
3:50 AM68 °FClear.1 mph78%29.98 "Hg10 mi
3:20 AM64 °FClear.1 mph88%30.01 "Hg6 mi
2:50 AM68 °FClear.1 mph78%30.01 "Hg10 mi
2:20 AM68 °FClear.1 mph78%30.01 "Hg10 mi
1:50 AM68 °FClear.1 mph78%30.01 "Hg10 mi
1:20 AM70 °FClear.1 mph73%30.01 "Hg10 mi
12:50 AM70 °FClear.1 mph73%30.01 "Hg10 mi
12:20 AM72 °FClear.1 mph69%30.01 "Hg10 mi
11:50 PM
Wed, Jul 27
72 °FClear.1 mph69%30.01 "Hg10 mi
11:20 PM72 °FClear.1 mph69%30.01 "Hg10 mi
10:50 PM73 °FClear.1 mph65%30.01 "Hg10 mi
10:20 PM75 °FSunny.2 mph61%30.01 "Hg10 mi
9:50 PM75 °FSunny.1 mph65%30.01 "Hg10 mi
9:20 PM75 °FSunny.5 mph65%30.01 "Hg10 mi
8:50 PM77 °FSunny.3 mph61%30.01 "Hg10 mi
8:20 PM79 °FSunny.5 mph54%30.01 "Hg10 mi
7:50 PM79 °FSunny.2 mph54%30.01 "Hg10 mi
7:20 PM81 °FPassing clouds.3 mph51%30.01 "HgN/A
6:50 PM81 °FPassing clouds.6 mph51%30.01 "HgN/A
6:20 PM81 °FSunny.5 mph48%30.01 "Hg10 mi
5:50 PM82 °FSunny.5 mph45%30.01 "Hg10 mi
5:20 PM82 °FPassing clouds.6 mph48%30.01 "HgN/A
4:50 PM82 °FSunny.5 mph45%30.04 "Hg10 mi
4:20 PM82 °FPassing clouds.6 mph42%30.04 "HgN/A
3:50 PM82 °FScattered clouds.5 mph48%30.04 "HgN/A
3:20 PM82 °FPartly sunny.5 mph45%30.04 "HgN/A
2:50 PM81 °FPartly sunny.5 mph51%30.07 "HgN/A
2:20 PM81 °FPartly sunny.5 mph51%30.07 "HgN/A
1:50 PM81 °FPartly sunny.5 mph51%30.07 "HgN/A
1:20 PM81 °FPartly sunny.2 mph51%30.07 "HgN/A
12:50 PM79 °FPartly sunny.5 mph58%30.07 "HgN/A
12:20 PM77 °FPartly sunny.6 mph65%30.07 "HgN/A
11:50 AM77 °FPartly sunny.3 mph65%30.07 "HgN/A
11:20 AM77 °FScattered clouds.5 mph65%30.07 "HgN/A
10:50 AM75 °FScattered clouds.6 mph69%30.07 "HgN/A
10:20 AM73 °FPassing clouds.6 mph74%30.07 "HgN/A
9:50 AM73 °FPassing clouds.6 mph74%30.07 "HgN/A
9:20 AM72 °FPassing clouds.5 mph73%30.07 "HgN/A
Weather by CustomWeather, © 2016

See weather overviewHow to use our weather pages